User: anonymous   Login
Location: Desert Center
(33.7130°N, 115.4010°W)
Time: 05:50:57
(UTC-07:00)
Language:

USA 215 - Orbit

View from above orbital plane
View from above orbital plane
View from above satellite
View from above satellite

Ground track
Ground track

The orbit data is extracted from the following two-line orbital elements,

1 37162U 10046A   15184.37671023 0.00000000  00000-0  00000-0 0    01
2 37162 123.0041 117.0893 0004000 147.6624 212.3376 13.41443719    06
Epoch (UTC): 03 July 2015 09:02:27
Eccentricity: 0.0004000
inclination: 123.0041°
perigee height: 1101 km
apogee height: 1107 km
right ascension of ascending node: 117.0893°
argument of perigee: 147.6624°
revolutions per day: 13.41443719
mean anomaly at epoch: 212.3376°
orbit number at epoch: 0

The dashed part of the orbit path shows where the satellite is in the earth's shadow,  

DLR